Location: Gniazdowice
(50.2124°N, 20.2673°E)
Time: 16:32:43
(UTC+00:00)

Cosmos 841 Rocket - Pass Details

Date: 23 May 2024
Orbit: 744 x 770 km, 74.0° (Epoch: 12 June)

Event Time Altitude Azimuth Distance (km) Brightness Sun altitude
Rises 00:24:57 0° 333° (NNW) 3,233 7.3 -15.1°
Reaches altitude 10° 00:27:21 10° 329° (NNW) 2,307 6.4 -15.0°
Maximum altitude 00:32:27 56° 252° (WSW) 911 3.6 -14.6°
Enters shadow 00:36:20 17° 179° (S) 1,854 5.0 -14.3°
